カタログに戻る

IRIDIUM 161

運用中通信PO
NORAD 43478·PAYLOAD·🇺🇸 United States

打ち上げ May 22, 2018 から Vandenberg Space Force Base

Loading…

次のパス (今後24時間)

TLE

最新Source: CelesTrak SupGP

元期: Sep 14, 2026, 22:22 UTC

1 43478C 18047C   26257.93229167  .00002529  00000+0  75276-3 0  2571
2 43478  86.4469  50.9123 0002337  97.1706 158.4156 14.43279085    14

AllMySatでIRIDIUM 161をリアルタイム追跡

Download on the App Store